User: anonymous   Login
Location: Bothwell
(42.3833°S, 147.0000°E)
Time: 05:50:25
(UTC+10:00)
Language:

Oscar 11 - Orbit

View from above orbital plane
View from above orbital plane
View from above satellite
View from above satellite

Ground track
Ground track

The orbit data is extracted from the following two-line orbital elements,

1 14781U 84021B   22267.51872298  .00000909  00000-0  11571-3 0  9993
2 14781  97.6272 250.4906 0008476   7.4073 352.7265 14.83815722 54738
Epoch (UTC): 24 September 2022 12:26:57
Eccentricity: 0.0008476
inclination: 97.6272°
perigee height: 611 km
apogee height: 623 km
right ascension of ascending node: 250.4906°
argument of perigee: 7.4073°
revolutions per day: 14.83815722
mean anomaly at epoch: 352.7265°
orbit number at epoch: 5473

The dashed part of the orbit path shows where the satellite is in the earth's shadow,  

DLR